[[{"header":{"parameterUnit":"m.s-1","parameterCategory":1,"la1":30.2991,"la2":30.254,"lo1":-89.0895,"lo2":-89.0444,"dy":0.0017,"dx":0.0017,"nx":28,"ny":28,"refTime":"2024-04-24T21:00:00:Z","depth":0,"parameterNumber":2,"parameterNumberName":"U-component_of_WINDS"},"data":[0,0,0,0,0,0,0,0,0,0,0,0,0,0,0,0,0,0,0,0,0,0,0,0,0,0,0,0,0,0,0,0,0,0,0,0,0,0,0,0,0,0,0,0,0,0,0,0,0,0,0,0,0,0,0,0,0,0,0.3199,0.32,0,0.3327,0.3329,0.333,0.3398,0.3398,0.3398,0.3398,0.3529,0.3533,0.3536,0,0,0,0,0,0,0,0,0,0,0,0,0,0.3011,0.3014,0.3198,0.32,0.3202,0.3327,0.3329,0.333,0.3398,0.3398,0.3398,0.3398,0.3528,0.3532,0.3536,0,0,0,0,0,0,0,0,0,0,0,0,0,0.3111,0.3015,0.3198,0.325,0.3256,0.3327,0.3329,0.3331,0.3398,0.3398,0.3398,0.3398,0.3527,0.3532,0.3537,0.3565,0,0,0.3552,0.3555,0,0,0,0,0,0,0,0,0.3105,0.3118,0.3241,0.3247,0.3254,0.3347,0.3311,0.3409,0.3398,0.3344,0.3398,0.3398,0.3468,0.3478,0.3502,0.3571,0.3577,0.3553,0.3556,0.3558,0.356,0,0,0,0,0,0,0,0.3098,0.3112,0.3249,0.3243,0.325,0.3267,0.3282,0.333,0.3404,0.3349,0.3354,0.3368,0.3472,0.3497,0.3506,0.3579,0.3553,0.3557,0.356,0.3562,0.3677,0.3677,0,0,0,0,0,0,0.3083,0.3106,0.3245,0.3253,0.3178,0.327,0.3286,0.3317,0.3403,0.3417,0.3368,0.3371,0.3488,0.35,0.351,0.3549,0.3558,0.3563,0.3566,0.3677,0.3677,0.3677,0,0,0,0,0,0,0.3078,0.3095,0.324,0.3181,0.3201,0.3273,0.3307,0.3319,0.3344,0.3418,0.3431,0.338,0.3489,0.3503,0.3551,0.3554,0.3565,0.357,0.3677,0.3677,0.3677,0.3626,0,0,0,0,0,0,0.3073,0.3093,0.3104,0.3181,0.3204,0.3278,0.3307,0.3321,0.3353,0.3358,0.3433,0.3445,0.349,0.3543,0.3556,0.3562,0.3574,0.3677,0.3677,0.3677,0.3628,0.3624,0.3621,0,0,0,0,0,0.3066,0.3085,0.3104,0.3121,0.322,0.3278,0.3292,0.3343,0.3353,0.3365,0.3412,0.3443,0.3552,0.3547,0.3562,0.357,0.3677,0.3677,0.3677,0.3629,0.3625,0.3621,0,0,0,0,0,0,0.3006,0.3096,0.3119,0.3163,0.3212,0.329,0.3306,0.3337,0.3384,0.3387,0.3448,0.3465,0.3506,0.3543,0.3536,0.3601,0.3618,0.3621,0.3576,0.3573,0.3569,0.3559,0.3578,0,0,0,0,0,0.2998,0.3038,0.3114,0.3146,0.317,0.3233,0.3261,0.3296,0.335,0.3371,0.3422,0.3473,0.3519,0.3548,0.3594,0.3633,0.365,0.3646,0.3643,0.364,0.3641,0.3665,0.3663,0.3677,0.3677,0.3677,0,0,0.2982,0.3036,0.3057,0.3135,0.3178,0.3218,0.3251,0.3292,0.3322,0.3378,0.3426,0.3464,0.3526,0.3569,0.3591,0.3601,0.3641,0.364,0.3637,0.364,0.3664,0.3663,0.3662,0.3677,0.3677,0.3677,0,0,0.2972,0.3017,0.3048,0.3091,0.3155,0.3197,0.3204,0.3278,0.3306,0.3355,0.3397,0.3434,0.3512,0.3553,0.3585,0.3591,0.3621,0.3604,0.3587,0.3609,0.3608,0.3607,0.3609,0.3609,0.3606,0.3606,0.3606,0,0.2944,0.3006,0.3061,0.3099,0.3132,0.3184,0.3216,0.3254,0.333,0.3352,0.3362,0.346,0.3505,0.3559,0.356,0.3584,0.3594,0.3596,0.3604,0.3604,0.3604,0.3606,0.3607,0.3603,0.3604,0.3604,0.3604,0,0.2968,0.301,0.3028,0.31,0.3135,0.3169,0.3229,0.3258,0.329,0.3331,0.338,0.3436,0.3494,0.351,0.3541,0.3568,0.3572,0.3592,0.361,0.3599,0.3603,0.3604,0.36,0.3601,0.3601,0.3602,0,0,0.2924,0.3026,0.3031,0.3065,0.3139,0.3173,0.321,0.3267,0.3291,0.3341,0.3374,0.3438,0.3457,0.3493,0.353,0.3549,0.355,0.3567,0.357,0.3562,0.3582,0.3566,0.3566,0.357,0.3571,0.3571,0.3577,0,0.2925,0.2994,0.3045,0.3095,0.3134,0.3184,0.3217,0.3266,0.3305,0.3345,0.3389,0.3433,0.3455,0.3477,0.3498,0.3545,0.3555,0.3546,0.3601,0.3602,0.3584,0.3568,0.3551,0.3554,0.3579,0.3579,0.3579,0,0.2935,0.2984,0.3038,0.3109,0.3127,0.3155,0.3212,0.3249,0.3305,0.3333,0.3372,0.341,0.3451,0.3465,0.3523,0.3515,0.3541,0.3568,0.3569,0.3576,0.359,0.3574,0.3556,0.3556,0.3582,0.3582,0.3581,0,0.2897,0.2977,0.3019,0.3046,0.313,0.3148,0.3184,0.3241,0.3272,0.3321,0.3342,0.3395,0.3424,0.3464,0.3515,0.3521,0.3567,0.3586,0.3591,0.359,0.3598,0.3597,0.3584,0.3615,0.3615,0.3615,0.3615,0,0.2893,0.2924,0.3003,0.3029,0.3065,0.3123,0.3157,0.3197,0.3247,0.3281,0.3328,0.3359,0.3425,0.3465,0.3505,0.3546,0.3559,0.3582,0.3592,0.3578,0.3575,0.3595,0.3596,0.3616,0.3615,0.3615,0.3615,0,0.2856,0.2911,0.296,0.3035,0.3055,0.3078,0.3142,0.3169,0.3211,0.3254,0.3268,0.3334,0.3382,0.3438,0.3505,0.3532,0.357,0.3585,0.3551,0.3556,0.3558,0.3557,0.3558,0.3561,0.359,0.3589,0.3589,0,0.2849,0.2874,0.2952,0.2979,0.3013,0.3055,0.3087,0.3145,0.3176,0.3242,0.3261,0.3313,0.3358,0.3434,0.3487,0.3539,0.3555,0.3552,0.3563,0.3548,0.3555,0.3552,0.3555,0.3548,0.3548,0.3547,0.3547,0,0.2831,0.2857,0.2902,0.2956,0.2992,0.3038,0.3085,0.3104,0.3171,0.3203,0.3254,0.3288,0.3357,0.3408,0.3466,0.3503,0.3536,0.3543,0.3547,0.3532,0.3511,0.3522,0.3541,0.3543,0.3543,0.3543,0.3544,0.3544,0.2809,0.2834,0.2892,0.294,0.2982,0.3024,0.3053,0.3099,0.3142,0.3203,0.3234,0.3284,0.334,0.3421,0.3457,0.3497,0.3507,0.3513,0.3515,0.3515,0.351,0.3505,0.3507,0.3508,0.3508,0.3508,0.3508,0,0.2793,0.2833,0.2877,0.2941,0.2979,0.3007,0.3061,0.309,0.3133,0.3183,0.3226,0.3284,0.3334,0.3392,0.3445,0.3466,0.3482,0.3478,0.3477,0.3484,0.3498,0.3489,0.3464,0.3464,0.3464,0.3464,0.3464,0.3464,0.2789,0.2832,0.2864,0.2928,0.2969,0.3018,0.3046,0.3085,0.3125,0.3188,0.323,0.3267,0.332,0.3378,0.3425,0.344,0.3458,0.3449,0.3469,0.348,0.3484,0.3487,0.3479,0.3452,0.3452,0.3452,0.3452,0.3452]},{"header":{"parameterUnit":"m.s-1","parameterCategory":1,"la1":30.2991,"la2":30.254,"lo1":-89.0895,"lo2":-89.0444,"dy":0.0017,"dx":0.0017,"nx":28,"ny":28,"refTime":"2024-04-24T21:00:00:Z","depth":0,"parameterNumber":3,"parameterNumberName":"V-component_of_WINDS"},"data":[0,0,0,0,0,0,0,0,0,0,0,0,0,0,0,0,0,0,0,0,0,0,0,0,0,0,0,0,0,0,0,0,0,0,0,0,0,0,0,0,0,0,0,0,0,0,0,0,0,0,0,0,0,0,0,0,0,0,3.68,3.6799,0,3.6763,3.6762,3.6762,3.6723,3.6722,3.6721,3.6721,3.668,3.6679,3.6679,0,0,0,0,0,0,0,0,0,0,0,0,0,3.6835,3.6834,3.68,3.6799,3.6799,3.6763,3.6762,3.6762,3.6723,3.6722,3.6721,3.6721,3.668,3.6679,3.6679,0,0,0,0,0,0,0,0,0,0,0,0,0,3.6811,3.6834,3.68,3.6775,3.6773,3.6763,3.6762,3.6762,3.6723,3.6722,3.6721,3.672,3.668,3.6679,3.6679,3.6689,0,0,3.6676,3.6675,0,0,0,0,0,0,0,0,3.6812,3.6809,3.6779,3.6777,3.6774,3.6746,3.6759,3.6737,3.6723,3.6742,3.6721,3.672,3.6702,3.67,3.6694,3.6687,3.6686,3.6676,3.6675,3.6675,3.6675,0,0,0,0,0,0,0,3.6814,3.6811,3.6785,3.6779,3.6776,3.6765,3.6761,3.6755,3.6727,3.674,3.6737,3.6733,3.6701,3.6695,3.6693,3.6685,3.6676,3.6675,3.6674,3.6674,3.6685,3.6686,0,0,0,0,0,0,3.682,3.6812,3.6786,3.6784,3.6792,3.6765,3.676,3.6756,3.6727,3.6722,3.6734,3.6732,3.6697,3.6694,3.6692,3.6702,3.6675,3.6674,3.6673,3.6684,3.6685,3.6686,0,0,0,0,0,0,3.6821,3.6818,3.6788,3.6797,3.6793,3.6765,3.6761,3.6756,3.675,3.6722,3.6717,3.6734,3.6696,3.6693,3.669,3.67,3.6674,3.6673,3.6683,3.6685,3.6686,3.6724,0,0,0,0,0,0,3.6822,3.6818,3.6822,3.6798,3.6792,3.6788,3.6762,3.6756,3.6749,3.6746,3.6721,3.6716,3.6696,3.6692,3.669,3.6698,3.6672,3.6682,3.6684,3.6685,3.6721,3.6726,3.673,0,0,0,0,0,3.6823,3.6834,3.6823,3.682,3.6797,3.6789,3.6785,3.6763,3.675,3.6754,3.6736,3.6717,3.67,3.6692,3.6689,3.6698,3.6682,3.6683,3.6685,3.6719,3.6725,3.673,0,0,0,0,0,0,3.6859,3.683,3.6818,3.6821,3.6808,3.6782,3.6786,3.6769,3.6759,3.6756,3.6727,3.6722,3.6723,3.671,3.6702,3.6707,3.6688,3.6689,3.6715,3.672,3.6724,3.6727,3.6671,0,0,0,0,0,3.6868,3.6864,3.6838,3.6844,3.6838,3.6813,3.6809,3.6793,3.6777,3.6771,3.6753,3.6738,3.673,3.6724,3.6715,3.672,3.6714,3.6724,3.6729,3.6733,3.6734,3.6735,3.674,3.6692,3.6692,3.6692,0,0,3.6885,3.6868,3.6867,3.6851,3.6838,3.6834,3.6809,3.6805,3.6802,3.677,3.6767,3.6754,3.6735,3.6737,3.6736,3.6726,3.6746,3.6735,3.6738,3.6737,3.6738,3.6742,3.6746,3.6694,3.6693,3.6693,0,0,3.6913,3.6901,3.6904,3.6893,3.6876,3.6859,3.686,3.6837,3.6828,3.6825,3.6801,3.6796,3.6782,3.677,3.6762,3.6788,3.6769,3.6785,3.6807,3.6809,3.6813,3.6816,3.6825,3.6829,3.6787,3.6787,3.6787,0,3.6936,3.693,3.6908,3.6906,3.6899,3.6872,3.6875,3.6865,3.6845,3.684,3.6829,3.6812,3.6797,3.6796,3.6802,3.6797,3.6796,3.6787,3.6815,3.6818,3.682,3.6828,3.6832,3.6789,3.6789,3.6788,3.6788,0,3.6959,3.6955,3.696,3.6943,3.6936,3.6937,3.6914,3.691,3.6895,3.688,3.6877,3.686,3.6846,3.6845,3.6829,3.6841,3.6835,3.682,3.68,3.6827,3.6834,3.6837,3.6792,3.6791,3.679,3.679,0,0,3.7008,3.698,3.6982,3.6974,3.6953,3.6949,3.6949,3.6937,3.6934,3.6921,3.692,3.6909,3.6895,3.6886,3.6869,3.6872,3.6893,3.6856,3.6855,3.6863,3.6904,3.6915,3.6919,3.6881,3.6882,3.6882,3.6906,0,3.7033,3.7031,3.7011,3.7015,3.7011,3.6985,3.6985,3.6972,3.6958,3.6952,3.6937,3.6929,3.6912,3.6906,3.6907,3.689,3.6901,3.6888,3.6878,3.6878,3.6883,3.6923,3.6934,3.6957,3.6908,3.6909,3.6909,0,3.7061,3.7051,3.7055,3.7035,3.7032,3.7032,3.702,3.7015,3.7,3.699,3.6981,3.6962,3.696,3.6942,3.6938,3.693,3.6925,3.6916,3.6917,3.6914,3.6895,3.6921,3.6964,3.6968,3.6913,3.6913,3.6913,0,3.7096,3.7084,3.7084,3.7078,3.7055,3.7056,3.7046,3.703,3.7024,3.7014,3.701,3.6998,3.6992,3.6984,3.6963,3.6952,3.6961,3.6941,3.6951,3.6952,3.6953,3.6953,3.6996,3.6952,3.6952,3.6952,3.6952,0,3.7124,3.7127,3.71,3.71,3.7102,3.708,3.7083,3.707,3.7057,3.7054,3.7031,3.7029,3.7002,3.6996,3.698,3.6978,3.6976,3.6967,3.6962,3.6968,3.697,3.6964,3.6961,3.6952,3.6952,3.6952,3.6952,0,3.7163,3.7145,3.7143,3.7122,3.7117,3.712,3.7101,3.71,3.7086,3.7082,3.708,3.7057,3.7049,3.7028,3.7014,3.7003,3.7007,3.6999,3.7012,3.7009,3.702,3.7019,3.706,3.7064,3.7018,3.7019,3.7019,0,3.7182,3.7184,3.7163,3.716,3.7152,3.7147,3.7142,3.712,3.7115,3.7099,3.71,3.7091,3.7082,3.7071,3.7052,3.7042,3.7033,3.7048,3.7031,3.7037,3.7032,3.7032,3.7032,3.7051,3.7052,3.7052,3.7052,0,3.7218,3.7209,3.7203,3.7193,3.7188,3.7179,3.7169,3.7168,3.7143,3.7139,3.7131,3.7125,3.7112,3.7103,3.709,3.7079,3.7061,3.7058,3.706,3.7066,3.7073,3.7069,3.7021,3.7057,3.7057,3.7056,3.7056,3.7056,3.7246,3.7247,3.7233,3.7227,3.7217,3.7209,3.7207,3.7193,3.7187,3.7175,3.7163,3.7157,3.7142,3.7123,3.7114,3.7108,3.7099,3.7101,3.7102,3.7102,3.7105,3.7075,3.7106,3.7105,3.7105,3.7105,3.7105,0,3.7281,3.7271,3.7265,3.7253,3.7248,3.7234,3.7222,3.7219,3.7214,3.7202,3.7195,3.7186,3.7178,3.716,3.7149,3.7148,3.714,3.7146,3.7145,3.7143,3.7114,3.7113,3.7153,3.7153,3.7153,3.7153,3.7153,3.7153,3.7298,3.7298,3.7288,3.7283,3.7273,3.7268,3.7263,3.7254,3.7245,3.7237,3.723,3.7219,3.7204,3.7193,3.7185,3.7179,3.7176,3.7185,3.7177,3.715,3.7145,3.7141,3.714,3.7184,3.7185,3.7206,3.7206,3.7207]}]]